Weather History for Columbia Owens, SC

Change the Weather History Date:

Saturday, January 5, 2013

  Actual Average Record
Temperature  
Mean Temperature 42 °F 45 °F  
Max Temperature 54 °F 55 °F 77 °F (2007)
Min Temperature 29 °F 35 °F 19 °F (1999)
Degree Days  
Heating Degree Days 23 20  
Month to date heating degree days 85 100  
Since 1 July heating degree days 878 1000  
Cooling Degree Days 0 0  
Month to date cooling degree days 0 0  
Year to date cooling degree days 0 0  
Moisture  
Dew Point 29 °F    
Average Humidity 65    
Maximum Humidity 92    
Minimum Humidity 32    
Precipitation  
Precipitation 0.00 in 0.13 in 0.75 in (2007)
Month to date precipitation 0.27 0.61  
Year to date precipitation 0.27 0.61  
Sea Level Pressure  
Sea Level Pressure 30.35 in    
Wind  
Wind Speed 0 mph (SW)    
Max Wind Speed 7 mph    
Max Gust Speed 10 mph    
Visibility 10 miles    
Events      
T = Trace of Precipitation, MM = Missing Value Source: NWS Daily Summary

Daily Weather History Graph

Daily Weather History Graph

Search for Another Location

Airport:

Trip Planner

Search our weather history database for the weather conditions in past years. The results will help you decide how hot, cold, wet, or windy it might be!

Date:

Astronomy

Jan. 05, 2013 Rise Set
Actual Time 7:29 AM EST 5:29 PM EST
Civil Twilight 7:02 AM EST 5:56 PM EST
Nautical Twilight 6:31 AM EST 6:27 PM EST
Astronomical Twilight 6:01 AM EST 6:58 PM EST
Moon 12:44 AM EST (1/5) 12:10 PM EST (1/5)
Length of Visible Light 10h 54m
Length of Day
9h 59m
Last Quarter, 44% of the Moon is Illuminated
Jan 5
Last Quarter
Jan 11
New
Jan 18
First Quarter
Jan 26
Full
Feb 3
Last Quarter

Hourly Weather History & Observations

Time (EST) Temp. Dew Point Humidity Pressure Visibility Wind Dir Wind Speed Gust Speed Precip Events Conditions
12:53 AM 35.1 °F 30.9 °F 85% 30.35 in 10.0 mi Calm Calm - N/A   Clear
1:53 AM 33.1 °F 28.9 °F 85% 30.35 in 10.0 mi Calm Calm - N/A   Clear
2:53 AM 32.0 °F 28.9 °F 88% 30.35 in 10.0 mi Calm Calm - N/A   Clear
3:53 AM 30.9 °F 28.0 °F 89% 30.36 in 10.0 mi Calm Calm - N/A   Clear
4:53 AM 30.0 °F 27.0 °F 88% 30.36 in 10.0 mi Calm Calm - N/A   Clear
5:53 AM 28.9 °F 27.0 °F 92% 30.37 in 9.0 mi Calm Calm - N/A   Clear
6:53 AM 28.9 °F 26.1 °F 89% 30.38 in 10.0 mi Calm Calm - N/A   Clear
7:53 AM 28.9 °F 27.0 °F 92% 30.40 in 8.0 mi Calm Calm - N/A   Clear
8:53 AM 34.0 °F 30.0 °F 85% 30.43 in 10.0 mi Calm Calm - N/A   Clear
9:53 AM 41.0 °F 30.0 °F 65% 30.44 in 10.0 mi Calm Calm - N/A   Clear
10:53 AM 44.1 °F 25.0 °F 47% 30.43 in 10.0 mi Calm Calm - N/A   Clear
11:53 AM 46.9 °F 27.0 °F 46% 30.40 in 10.0 mi South 3.5 mph - N/A   Clear
12:53 PM 50.0 °F 26.1 °F 39% 30.36 in 10.0 mi Calm Calm - N/A   Clear
1:53 PM 51.1 °F 25.0 °F 36% 30.32 in 10.0 mi WSW 3.5 mph - N/A   Clear
2:53 PM 52.0 °F 23.0 °F 32% 30.32 in 10.0 mi Calm Calm - N/A   Clear
3:53 PM 53.1 °F 24.1 °F 32% 30.33 in 10.0 mi Calm Calm - N/A   Clear
4:53 PM 53.1 °F 25.0 °F 34% 30.31 in 10.0 mi Calm Calm - N/A   Clear
5:53 PM 48.0 °F 30.9 °F 52% 30.32 in 10.0 mi Calm Calm - N/A   Clear
6:53 PM 46.9 °F 34.0 °F 61% 30.33 in 10.0 mi Calm Calm - N/A   Clear
7:53 PM 46.9 °F 35.1 °F 63% 30.33 in 6.0 mi Calm Calm - N/A   Haze
8:53 PM 46.9 °F 35.1 °F 63% 30.33 in 10.0 mi Calm Calm - N/A   Clear
9:53 PM 48.0 °F 34.0 °F 58% 30.33 in 10.0 mi Calm Calm - N/A   Overcast
10:53 PM 46.9 °F 37.9 °F 71% 30.30 in 10.0 mi Calm Calm - N/A   Overcast
11:53 PM 46.0 °F 39.0 °F 76% 30.29 in 10.0 mi Calm Calm - N/A   Overcast